Location: Moscow
(55.7500°N, 37.5830°E)
Time: 01:14:56
(UTC+03:00)

Explorer 7 - Pass Details

Date: 03 December 2021
Orbit: 483 x 674 km, 50.3° (Epoch: 17 January)

Event Time Altitude Azimuth Distance (km) Brightness Sun altitude
Rises 06:34:12 0° 208° (SSW) 2,793 10.3 -16.1°
Reaches altitude 10° 06:37:14 10° 187° (S) 1,853 9.6 -15.7°
Maximum altitude 06:39:49 16° 148° (SSE) 1,473 9.6 -15.4°
Drops below altitude 10° 06:42:20 10° 110° (ESE) 1,787 10.8 -15.0°
Sets 06:45:09 0° 88° (E) 2,642 11.7 -14.6°
